Погода в Залазна

Россия / Кировская область     58°39′43″N   52°30′09″E
темп.,
°C
ветер,
м/с
пор.,
м/с
влажн.,
%
обл.,
%
осадки,
мм/ч
давл.,
гПа
погр.,
м
18 апреля, вс
вс1800:00+2сз210874 0.0 1024209
03:00+1сз210925 0.0 1024262
06:00+3ссв5882100 0.0 1025974
09:00+2св57470 0.0 10281117
12:00+4св57405 0.0 10291595
15:00+4св573869 0.0 10301861
18:00+2всв48485 0.0 1032802
21:00−1всв310614 0.0 1034439
19 апреля, пн
пн1900:00−2всв39650 0.0 1035395
03:00−2всв38650 0.0 1036343
06:00−1всв37580 0.0 1037498
09:00+2всв35405 0.0 10371358
12:00+4всв34320 0.0 10361532
15:00+5всв34300 0.0 10361522
18:00+2всв23460 0.0 103665
21:00−1в23590 0.0 103757
20 апреля, вт
вт2000:00−1вюв11580 0.0 103715
03:00−2вюв11560 0.0 103810
06:00+1в00470 0.0 1038131
09:00+5ссв11310 0.0 1037848
12:00+8з11285 0.0 10361191
15:00+9сз11270 0.0 10341233
18:00+6с11401 0.0 103310
21:00+3в11490 0.0 103410
21 апреля, ср
ср2100:00+1юв11570 0.0 103410
03:000юв11610 0.0 103410
06:00+3юв23550 0.0 1034125
09:00+8юв34379 0.0 1033774
12:00+11ююв453336 0.0 10321307
15:00+12ююв473324 0.0 10301361
18:00+9ююв49455 0.0 1029426
21:00+6ююв4135995 0.0 1030442
22 апреля, чт
чт2200:00+5ююв41458100 0.0 1029468
03:00+5ююв41457100 0.0 1029513
06:00+5ю41357100 0.0 1029699
09:00+5ю51164100 0.0 1029940
12:00+5ю51180100 0.3 1030916
15:00+5ю51090100 1.1 1031914
18:00+4ю4997100 0.4 1031714
21:00+4ю31095100 0.5 1031528